Location: Starhoo Observatory
(41.8578°N, 70.9669°W)
Time: 10:45:18
(UTC-04:00)

ISS - Visible Passes

Search period start: 27 April 2017 00:00
Search period end: 07 May 2017 00:00
Orbit: 401 x 409 km, 51.6° (Epoch: 28 April)

Date Brightness Start Highest point End Pass type
(mag) Time Alt. Az. Time Alt. Az. Time Alt. Az.
04 May -2.1 05:03:09 10° SSW 05:05:57 26° SE 05:08:46 10° ENE visible
05 May -1.3 04:12:08 10° SSE 04:14:00 14° SE 04:15:52 10° E visible
06 May -3.6 04:54:43 10° SW 04:57:58 66° SE 05:01:13 10° ENE visible
